�������l�o���
Date,Time,MP-1(��Sv/h),MP-2(��Sv/h),MP-3(��Sv/h),MP-4(��Sv/h),MP-5(��Sv/h),MP-6(��Sv/h),MP-7(��Sv/h),MP-8(��Sv/h),����,����(m/s),���J
2018/10/23,00:00,0.792,1.202,0.842,1.506,1.083,0.461,0.812,0.768,�k��,2.2,��
2018/10/23,00:10,0.792,1.203,0.842,1.508,1.083,0.461,0.810,0.768,�k�k��,2.5,��
2018/10/23,00:20,0.791,1.200,0.841,1.509,1.085,0.463,0.811,0.769,�k�k��,2.8,��
2018/10/23,00:30,0.792,1.199,0.843,1.509,1.084,0.461,0.811,0.768,�k��,2.6,��
2018/10/23,00:40,0.792,1.199,0.844,1.507,1.082,0.461,0.812,0.767,�k�k��,2.6,��
2018/10/23,00:50,0.791,1.200,0.842,1.509,1.083,0.461,0.808,0.766,�k�k��,3.0,��
2018/10/23,01:00,0.791,1.201,0.842,1.509,1.083,0.462,0.812,0.769,�k�k��,3.2,��
2018/10/23,01:10,0.791,1.200,0.842,1.509,1.083,0.462,0.810,0.768,�k�k��,3.6,��
2018/10/23,01:20,0.791,1.198,0.842,1.506,1.084,0.461,0.811,0.766,�k�k��,3.8,��
2018/10/23,01:30,0.794,1.197,0.841,1.506,1.084,0.462,0.812,0.769,�k�k��,4.1,��
2018/10/23,01:40,0.792,1.197,0.843,1.508,1.082,0.463,0.812,0.769,�k�k��,3.9,��
2018/10/23,01:50,0.791,1.198,0.841,1.505,1.083,0.460,0.812,0.768,�k�k��,3.7,��
2018/10/23,02:00,0.791,1.198,0.844,1.508,1.083,0.460,0.810,0.767,�k�k��,3.2,��
2018/10/23,02:10,0.791,1.198,0.842,1.506,1.083,0.461,0.813,0.768,�k��,3.6,��
2018/10/23,02:20,0.791,1.199,0.843,1.506,1.082,0.462,0.812,0.768,�k��,3.5,��
2018/10/23,02:30,0.792,1.198,0.841,1.506,1.081,0.462,0.811,0.767,�k��,3.2,��
2018/10/23,02:40,0.792,1.198,0.843,1.506,1.085,0.461,0.811,0.768,�k��,3.4,��
2018/10/23,02:50,0.792,1.199,0.841,1.506,1.084,0.461,0.811,0.770,�k��,2.6,��
2018/10/23,03:00,0.790,1.195,0.844,1.508,1.083,0.460,0.812,0.767,�k��,3.1,��
2018/10/23,03:10,0.791,1.198,0.842,1.507,1.083,0.460,0.810,0.768,�k�k��,2.8,��
2018/10/23,03:20,0.792,1.197,0.844,1.506,1.082,0.460,0.811,0.768,�k�k��,2.9,��
2018/10/23,03:30,0.793,1.198,0.843,1.507,1.082,0.460,0.812,0.768,�k��,3.1,��
2018/10/23,03:40,0.790,1.196,0.842,1.504,1.081,0.460,0.810,0.769,�k�k��,3.3,��
2018/10/23,03:50,0.792,1.197,0.841,1.507,1.082,0.459,0.810,0.768,�k�k��,3.9,��
2018/10/23,04:00,0.790,1.200,0.841,1.506,1.080,0.460,0.812,0.768,�k�k��,4.1,��
2018/10/23,04:10,0.790,1.197,0.842,1.505,1.083,0.460,0.811,0.767,�k�k��,4.3,��
2018/10/23,04:20,0.793,1.195,0.841,1.507,1.082,0.461,0.813,0.769,�k�k��,4.5,��
2018/10/23,04:30,0.791,1.197,0.841,1.508,1.082,0.460,0.813,0.768,�k�k��,4.6,��
2018/10/23,04:40,0.789,1.198,0.843,1.505,1.082,0.462,0.812,0.768,�k�k��,5.4,��
2018/10/23,04:50,0.790,1.198,0.840,1.508,1.083,0.461,0.810,0.771,�k�k��,5.3,��
2018/10/23,05:00,0.791,1.199,0.841,1.508,1.079,0.462,0.811,0.767,�k�k��,5.7,��
2018/10/23,05:10,0.791,1.197,0.842,1.509,1.082,0.461,0.810,0.769,�k�k��,6.1,��
2018/10/23,05:20,0.791,1.197,0.843,1.509,1.082,0.461,0.811,0.767,�k�k��,5.3,��
2018/10/23,05:30,0.792,1.199,0.842,1.508,1.082,0.460,0.812,0.767,�k�k��,4.9,��
2018/10/23,05:40,0.789,1.197,0.842,1.504,1.081,0.460,0.812,0.768,�k�k��,5.1,��
2018/10/23,05:50,0.791,1.197,0.841,1.506,1.083,0.460,0.812,0.768,�k�k��,5.1,��
2018/10/23,06:00,0.790,1.198,0.844,1.506,1.080,0.461,0.811,0.767,�k�k��,5.2,��
2018/10/23,06:10,0.791,1.196,0.841,1.507,1.081,0.462,0.811,0.769,�k�k��,5.1,��
2018/10/23,06:20,0.792,1.200,0.842,1.507,1.081,0.462,0.811,0.769,�k�k��,4.9,��
2018/10/23,06:30,0.792,1.197,0.843,1.505,1.082,0.461,0.811,0.767,�k�k��,5.0,��
2018/10/23,06:40,0.789,1.199,0.843,1.506,1.083,0.460,0.811,0.768,�k�k��,5.4,��
2018/10/23,06:50,0.792,1.198,0.844,1.507,1.081,0.462,0.810,0.770,�k�k��,4.9,��
2018/10/23,07:00,0.793,1.197,0.843,1.507,1.083,0.459,0.810,0.770,�k�k��,5.0,��
2018/10/23,07:10,0.791,1.198,0.842,1.507,1.081,0.460,0.813,0.769,�k�k��,5.3,��
2018/10/23,07:20,0.793,1.198,0.843,1.509,1.083,0.461,0.812,0.768,�k�k��,4.9,��
2018/10/23,07:30,0.791,1.198,0.842,1.508,1.079,0.461,0.812,0.769,�k�k��,5.1,��
2018/10/23,07:40,0.791,1.201,0.843,1.506,1.085,0.460,0.812,0.769,�k�k��,5.5,��
2018/10/23,07:50,0.794,1.200,0.844,1.506,1.083,0.460,0.811,0.769,�k�k��,5.0,��
2018/10/23,08:00,0.792,1.200,0.844,1.509,1.085,0.461,0.813,0.769,�k�k��,4.8,��
2018/10/23,08:10,0.793,1.200,0.844,1.511,1.084,0.460,0.814,0.769,�k�k��,4.4,��
2018/10/23,08:20,0.793,1.199,0.843,1.507,1.085,0.462,0.810,0.771,�k�k��,5.0,��
2018/10/23,08:30,0.792,1.195,0.843,1.510,1.081,0.461,0.811,0.769,�k�k��,4.0,��
2018/10/23,08:40,0.791,1.196,0.843,1.512,1.084,0.464,0.813,0.771,�k�k��,3.8,��
2018/10/23,08:50,0.794,1.196,0.844,1.508,1.085,0.462,0.812,0.771,�k,2.5,��
2018/10/23,09:00,0.794,1.194,0.845,1.509,1.086,0.463,0.811,0.770,�k,2.6,��
2018/10/23,09:10,0.794,1.193,0.845,1.508,1.085,0.462,0.813,0.771,�k�k��,2.6,��
2018/10/23,09:20,0.797,1.196,0.846,1.510,1.087,0.464,0.814,0.770,�k�k��,2.2,��
2018/10/23,09:30,0.798,1.197,0.846,1.506,1.085,0.462,0.812,0.770,�k,2.0,��
2018/10/23,09:40,0.794,1.198,0.845,1.509,1.084,0.463,0.813,0.770,�k�k��,2.8,��
2018/10/23,09:50,0.792,1.192,0.843,1.508,1.083,0.461,0.812,0.770,�k�k��,3.2,��
2018/10/23,10:00,0.793,1.194,0.841,1.512,1.083,0.460,0.814,0.768,�k�k��,2.9,��
2018/10/23,10:10,0.794,1.196,0.843,1.508,1.085,0.460,0.813,0.768,�k�k��,3.0,��
2018/10/23,10:20,0.793,1.195,0.842,1.510,1.087,0.460,0.813,0.770,�k�k��,3.3,��
2018/10/23,10:30,0.792,1.194,0.840,1.510,1.083,0.462,0.813,0.767,�k�k��,3.7,��
2018/10/23,10:40,0.795,1.198,0.844,1.508,1.085,0.461,0.814,0.768,�k,3.3,��
2018/10/23,10:50,0.794,1.200,0.843,1.510,1.086,0.460,0.812,0.768,�k�k��,3.0,��
2018/10/23,11:00,0.794,1.199,0.843,1.511,1.086,0.461,0.813,0.768,�k,3.2,��
2018/10/23,11:10,0.795,1.200,0.843,1.510,1.086,0.461,0.813,0.768,�k,3.9,��
2018/10/23,11:20,0.795,1.197,0.843,1.510,1.086,0.460,0.813,0.769,�k�k��,3.6,��
2018/10/23,11:30,0.794,1.196,0.841,1.513,1.088,0.461,0.813,0.768,�k�k��,3.5,��
2018/10/23,11:40,0.794,1.198,0.842,1.511,1.088,0.461,0.814,0.767,�k�k��,3.1,��
2018/10/23,11:50,0.795,1.198,0.844,1.513,1.088,0.462,0.814,0.769,�k�k��,3.6,��
2018/10/23,12:00,0.795,1.199,0.844,1.508,1.088,0.460,0.814,0.768,�k�k��,3.7,��
2018/10/23,12:10,0.795,1.199,0.843,1.512,1.086,0.462,0.814,0.768,�k�k��,3.7,��
2018/10/23,12:20,0.795,1.199,0.843,1.511,1.089,0.461,0.814,0.767,�k,3.4,��
2018/10/23,12:30,0.794,1.198,0.845,1.510,1.090,0.461,0.815,0.770,�k�k��,2.2,��
2018/10/23,12:40,0.799,1.199,0.844,1.511,1.089,0.461,0.814,0.768,�k�k��,2.9,��
2018/10/23,12:50,0.796,1.198,0.844,1.511,1.088,0.461,0.815,0.768,�k�k��,3.0,��
2018/10/23,13:00,0.798,1.199,0.845,1.510,1.090,0.463,0.815,0.769,�k,2.9,��
2018/10/23,13:10,0.796,1.200,0.844,1.512,1.090,0.462,0.813,0.770,�k�k��,1.9,��
2018/10/23,13:20,0.795,1.196,0.845,1.511,1.089,0.460,0.816,0.769,�k,1.5,��
2018/10/23,13:30,0.796,1.198,0.843,1.513,1.088,0.460,0.815,0.766,�k��,0.6,��
2018/10/23,13:40,0.795,1.199,0.845,1.511,1.090,0.461,0.814,0.769,�k��,1.7,��
2018/10/23,13:50,0.797,1.199,0.846,1.512,1.088,0.462,0.814,0.767,��,1.2,��
2018/10/23,14:00,0.795,1.199,0.846,1.511,1.087,0.461,0.814,0.769,��,1.4,��
2018/10/23,14:10,0.795,1.201,0.848,1.514,1.089,0.462,0.814,0.769,���k��,2.0,��
2018/10/23,14:20,0.796,1.198,0.845,1.512,1.089,0.460,0.814,0.768,��,1.2,��
2018/10/23,14:30,0.796,1.198,0.844,1.512,1.089,0.461,0.814,0.767,���k��,1.1,��
2018/10/23,14:40,0.796,1.201,0.845,1.513,1.088,0.462,0.813,0.768,�k��,1.4,��
2018/10/23,14:50,0.795,1.199,0.843,1.511,1.089,0.462,0.814,0.768,��,2.2,��
2018/10/23,15:00,0.795,1.198,0.844,1.512,1.091,0.463,0.813,0.769,��,3.0,��
2018/10/23,15:10,0.795,1.202,0.844,1.513,1.089,0.462,0.813,0.768,��,2.9,��
2018/10/23,15:20,0.796,1.203,0.845,1.512,1.089,0.463,0.813,0.769,���k��,2.0,��
2018/10/23,15:30,0.794,1.202,0.846,1.512,1.087,0.463,0.814,0.767,���k��,1.7,��
2018/10/23,15:40,0.796,1.205,0.845,1.513,1.091,0.463,0.814,0.768,���k��,1.9,��
2018/10/23,15:50,0.798,1.203,0.848,1.514,1.090,0.464,0.813,0.768,���k��,1.9,��
2018/10/23,16:00,0.799,1.207,0.846,1.511,1.090,0.463,0.812,0.770,���k��,1.7,��
2018/10/23,16:10,0.798,1.208,0.849,1.512,1.091,0.464,0.812,0.769,�k��,1.5,��
2018/10/23,16:20,0.799,1.206,0.847,1.512,1.093,0.464,0.813,0.770,�k�k��,1.1,��
2018/10/23,16:30,0.800,1.207,0.846,1.515,1.089,0.463,0.814,0.769,�k,1.2,��
2018/10/23,16:40,0.799,1.208,0.847,1.513,1.093,0.465,0.812,0.767,�k,1.4,��
2018/10/23,16:50,0.798,1.209,0.847,1.510,1.091,0.463,0.812,0.773,�k,1.4,��
2018/10/23,17:00,0.798,1.207,0.846,1.512,1.090,0.464,0.814,0.770,�k�k��,1.4,��
2018/10/23,17:10,0.799,1.208,0.846,1.510,1.090,0.464,0.814,0.769,�k�k��,1.2,��
2018/10/23,17:20,0.798,1.207,0.848,1.511,1.091,0.463,0.814,0.770,�k,1.5,��
2018/10/23,17:30,0.798,1.207,0.847,1.512,1.091,0.463,0.813,0.770,�k,1.5,��
2018/10/23,17:40,0.798,1.205,0.846,1.510,1.091,0.462,0.814,0.771,�k�k��,2.3,��
2018/10/23,17:50,0.796,1.205,0.848,1.511,1.092,0.464,0.815,0.769,�k�k��,2.9,��
2018/10/23,18:00,0.798,1.207,0.847,1.512,1.092,0.464,0.815,0.770,�k�k��,3.0,��
2018/10/23,18:10,0.796,1.202,0.848,1.512,1.091,0.462,0.815,0.771,�k�k��,2.6,��
2018/10/23,18:20,0.796,1.207,0.847,1.512,1.090,0.463,0.814,0.772,�k�k��,2.3,��
2018/10/23,18:30,0.797,1.206,0.848,1.512,1.091,0.463,0.814,0.771,�k�k��,2.6,��
2018/10/23,18:40,0.799,1.208,0.847,1.514,1.088,0.463,0.812,0.772,�k�k��,2.5,��
2018/10/23,18:50,0.800,1.207,0.847,1.511,1.090,0.464,0.814,0.770,�k,2.0,��
2018/10/23,19:00,0.797,1.203,0.847,1.511,1.090,0.462,0.815,0.770,�k�k��,2.2,��
2018/10/23,19:10,0.796,1.206,0.847,1.512,1.092,0.463,0.813,0.769,�k�k��,2.9,��
2018/10/23,19:20,0.797,1.206,0.846,1.511,1.091,0.462,0.814,0.770,�k��,3.0,��
2018/10/23,19:30,0.799,1.204,0.845,1.511,1.091,0.463,0.814,0.769,�k��,3.4,��
2018/10/23,19:40,0.798,1.208,0.847,1.512,1.090,0.463,0.813,0.771,�k��,3.1,��
2018/10/23,19:50,0.797,1.206,0.847,1.514,1.090,0.464,0.814,0.771,�k��,2.9,��
2018/10/23,20:00,0.797,1.205,0.847,1.512,1.089,0.464,0.815,0.769,���k��,2.3,��
2018/10/23,20:10,0.799,1.205,0.848,1.513,1.090,0.463,0.814,0.772,�k��,2.0,��
2018/10/23,20:20,0.797,1.207,0.847,1.514,1.090,0.464,0.815,0.771,�k��,2.3,��
2018/10/23,20:30,0.798,1.206,0.849,1.513,1.090,0.463,0.814,0.771,���k��,2.6,��
2018/10/23,20:40,0.796,1.205,0.845,1.513,1.094,0.463,0.811,0.771,���k��,2.5,��
2018/10/23,20:50,0.795,1.203,0.848,1.511,1.089,0.462,0.813,0.769,���k��,2.5,��
2018/10/23,21:00,0.796,1.206,0.846,1.511,1.089,0.463,0.812,0.770,���k��,2.6,��
2018/10/23,21:10,0.797,1.204,0.848,1.514,1.092,0.462,0.815,0.769,���k��,2.3,�L
2018/10/23,21:20,0.797,1.205,0.847,1.511,1.090,0.462,0.813,0.771,���k��,1.9,�L
2018/10/23,21:30,0.797,1.205,0.847,1.510,1.090,0.462,0.814,0.770,��,1.5,��
2018/10/23,21:40,0.797,1.204,0.847,1.511,1.090,0.463,0.814,0.771,��,1.5,��
2018/10/23,21:50,0.796,1.207,0.846,1.513,1.090,0.464,0.813,0.769,���쐼,0.8,��
2018/10/23,22:00,0.798,1.206,0.847,1.512,1.090,0.464,0.814,0.770,��,0.9,��
2018/10/23,22:10,0.798,1.206,0.848,1.511,1.089,0.462,0.814,0.771,-,CALM,��
2018/10/23,22:20,0.798,1.205,0.848,1.512,1.090,0.463,0.814,0.770,-,CALM,��
2018/10/23,22:30,0.796,1.205,0.847,1.511,1.090,0.463,0.815,0.768,��,0.6,��
2018/10/23,22:40,0.796,1.207,0.846,1.513,1.088,0.463,0.813,0.768,���k��,0.9,��
2018/10/23,22:50,0.797,1.205,0.845,1.509,1.091,0.462,0.815,0.769,-,CALM,��
2018/10/23,23:00,0.797,1.205,0.848,1.514,1.090,0.466,0.815,0.770,�k��,0.6,��
2018/10/23,23:10,0.800,1.206,0.847,1.512,1.091,0.464,0.814,0.771,���k��,0.9,��
2018/10/23,23:20,0.796,1.205,0.846,1.512,1.091,0.463,0.815,0.770,�k��,1.7,��
2018/10/23,23:30,0.797,1.207,0.846,1.510,1.092,0.464,0.815,0.770,�k��,1.2,��
2018/10/23,23:40,0.797,1.206,0.846,1.511,1.089,0.464,0.813,0.772,�k�k��,2.6,��
2018/10/23,23:50,0.799,1.203,0.847,1.513,1.092,0.464,0.814,0.769,�k�k��,2.6,��
